Location: Trieste
(45.6490°N, 13.7800°E)
Time: 08:39:15
(UTC+02:00)

ISS - Visible Passes

Search period start: 08 May 2021 00:00
Search period end: 18 May 2021 00:00
Orbit: 418 x 421 km, 51.6° (Epoch: 08 May)

Date Brightness Start Highest point End Pass type
(mag) Time Alt. Az. Time Alt. Az. Time Alt. Az.
08 May -2.5 02:49:24 37° NNW 02:49:37 38° NNW 02:52:49 10° NE visible
08 May -1.8 04:23:59 10° WNW 04:26:59 29° N 04:30:00 10° ENE visible
09 May -1.8 02:03:27 29° NE 02:03:27 29° NE 02:05:24 10° NE visible
09 May -1.8 03:36:26 10° WNW 03:39:25 28° N 03:42:24 10° ENE visible
10 May -0.9 01:17:27 14° ENE 01:17:27 14° ENE 01:17:59 10° ENE visible
10 May -1.8 02:50:22 21° NW 02:51:49 29° N 02:54:51 10° ENE visible
10 May -2.2 04:26:01 10° NW 04:29:13 37° NNE 04:32:24 10° E visible
11 May -2.0 02:04:21 32° N 02:04:21 32° N 02:07:21 10° NE visible
11 May -1.9 03:38:35 10° NW 03:41:39 31° N 03:44:44 10° ENE visible
12 May -1.5 01:18:17 23° NE 01:18:17 23° NE 01:19:54 10° NE visible
12 May -1.7 02:51:12 11° WNW 02:54:05 29° N 02:57:05 10° ENE visible
12 May -3.2 04:27:56 10° WNW 04:31:19 63° NNE 04:34:40 10° ESE visible
13 May -0.9 00:32:07 12° NE 00:32:07 12° NE 00:32:29 10° NE visible
13 May -1.7 02:05:02 20° NW 02:06:30 28° N 02:09:29 10° ENE visible
13 May -2.7 03:40:31 10° NW 03:43:49 46° NNE 03:47:06 10° E visible
14 May -1.8 01:18:38 29° NNW 01:18:54 29° N 01:21:55 10° ENE visible
14 May -2.2 02:53:06 10° NW 02:56:17 37° NNE 02:59:28 10° E visible
14 May -3.7 04:29:54 10° WNW 04:33:14 57° SW 04:36:33 10° SE visible
14 May -2.0 21:16:04 10° SSE 21:17:53 14° SE 21:19:42 10° E visible
14 May -3.9 22:50:53 10° WSW 22:54:14 85° SSE 22:55:40 32° ENE visible
15 May -1.9 00:28:15 10° WNW 00:31:20 32° N 00:34:25 10° NE visible
15 May -1.9 02:05:39 10° NW 02:08:43 31° N 02:11:48 10° ENE visible
15 May -3.8 03:42:26 10° WNW 03:45:49 88° SW 03:49:12 10° ESE visible
15 May -3.7 22:03:33 10° SW 22:06:51 55° SE 22:10:09 10° ENE visible
15 May -2.3 23:40:36 10° W 23:43:46 37° NNW 23:46:57 10° NE visible
16 May -1.7 01:18:08 10° WNW 01:21:09 29° N 01:24:09 10° ENE visible
16 May -3.4 02:55:01 10° WNW 02:58:22 64° NNE 03:01:44 10° ESE visible
16 May -2.6 04:32:13 10° W 04:34:57 23° SW 04:37:40 10° SSE visible
16 May -3.1 21:16:25 10° SSW 21:19:29 34° SE 21:22:35 10° ENE visible
16 May -2.7 22:52:57 10° W 22:56:14 47° NNW 22:59:32 10° NE visible
17 May -1.6 00:30:35 10° WNW 00:33:33 28° N 00:36:32 10° ENE visible
17 May -2.7 02:07:36 10° NW 02:10:52 47° NNE 02:14:09 10° E visible
17 May -3.2 03:45:04 14° WNW 03:47:38 36° SW 03:50:46 10° SSE visible
17 May -3.4 22:05:24 10° WSW 22:08:45 66° NNW 22:12:06 10° ENE visible
17 May -1.7 23:42:57 10° WNW 23:45:58 29° N 23:48:58 10° ENE visible
